Tracking 29892 objects as of 21-Nov-2024
HD Live streaming from Space Station
objects crossing your sky now

GLOBALSTAR M047

Track GLOBALSTAR M047 now!
10-day predictions
GLOBALSTAR M047 is classified as:


NORAD ID: 25772
Int'l Code: 1999-031C
Perigee: 1,994.4 km
Apogee: 2,021.6 km
Inclination: 52.0 °
Period: 127.2 minutes
Semi major axis: 8378 km
RCS: 2.931 m2 (large)
Launch date: June 10, 1999
Source: Globalstar (GLOB)
Launch site: AIR FORCE EASTERN TEST RANGE (AFETR)
Your satellite tracking list
Your tracking list is empty




NASA's NSSDC Master Catalog

Two Line Element Set (TLE):
1 25772U 99031C   24325.91964835 -.00000040  00000-0  81367-3 0  9999
2 25772  51.9850 322.9024 0016230 265.9775  93.9176 11.31925100447528
Source of the keplerian elements: AFSPC